De Queen, AR

2:50 AM CDT on April 22, 2018 (GMT -0500)
Helms Sevier County

Weather History for KDEQ - May, 2013

Change the Weather History Date:

Thursday, May 9, 2013

  Actual Average Record
Temperature  
Mean Temperature 67 °F 68 °F  
Max Temperature 72 °F 79 °F 90 °F (1956)
Min Temperature 61 °F 57 °F 40 °F (1982)
Degree Days  
Heating Degree Days 0 1  
Month to date heating degree days 64 15  
Since 1 July heating degree days 3045 3036  
Cooling Degree Days 2 4  
Month to date cooling degree days 7 31  
Year to date cooling degree days 67 78  
Growing Degree Days 16 (Base 50)    
Moisture  
Dew Point 63 °F    
Average Humidity 87    
Maximum Humidity 100    
Minimum Humidity 73    
Precipitation  
Precipitation 0.10 in 0.21 in 3.01 in (1936)
Month to date precipitation 0.37 2.05  
Year to date precipitation 7.65 17.62  
Snow  
Snow 0.00 in - - ()
Month to date snowfall 0.0  
Since 1 July snowfall 4.5  
Snow Depth 0.00 in    
Sea Level Pressure  
Sea Level Pressure 29.95 in    
Wind  
Wind Speed 4 mph (SE)    
Max Wind Speed 12 mph    
Max Gust Speed 17 mph    
Visibility 6 miles    
Events Fog , Rain    
T = Trace of Precipitation, MM = Missing Value Source: NWS Daily Summary

Daily Weather History Graph

Daily Weather History Graph

Search for Another Location

Airport or City:

Astronomy

May. 09, 2013 Rise Set
Actual Time 6:20 AM CDT 8:07 PM CDT
Civil Twilight 5:53 AM CDT 8:35 PM CDT
Nautical Twilight 5:20 AM CDT 9:08 PM CDT
Astronomical Twilight 4:45 AM CDT 9:43 PM CDT
Moon 6:04 AM CDT (5/9) 8:03 PM CDT (5/9)
Length of Visible Light 14h 41m
Length of Day
13h 47m
Waning Crescent, 0% of the Moon is Illuminated
May 9
Waning Crescent
May 9
New
May 17
First Quarter
May 24
Full
May 31
Last Quarter

Hourly Weather History & Observations

Time (CDT) Temp. Dew Point Humidity Pressure Visibility Wind Dir Wind Speed Gust Speed Precip Events Conditions
12:53 AM 66.0 °F 60.1 °F 81% 29.96 in 10.0 mi Calm Calm - N/A   Clear
1:53 AM 64.0 °F 59.0 °F 84% 29.94 in 10.0 mi East 4.6 mph - N/A   Clear
2:53 AM 68.0 °F 59.0 °F 73% 29.91 in 10.0 mi SE 6.9 mph - 0.00 in Rain Light Rain
3:53 AM 69.1 °F 59.0 °F 70% 29.93 in 10.0 mi Variable 4.6 mph - 0.00 in   Clear
4:53 AM 68.0 °F 59.0 °F 73% 29.94 in 10.0 mi South 8.1 mph - N/A   Clear
5:53 AM 64.9 °F 59.0 °F 81% 29.94 in 10.0 mi Variable 5.8 mph - N/A   Clear
6:53 AM 63.0 °F 59.0 °F 87% 29.97 in 10.0 mi SSE 4.6 mph - N/A   Partly Cloudy
7:38 AM 64.0 °F 60.1 °F 87% 30.00 in 10.0 mi Calm Calm - N/A   Mostly Cloudy
7:53 AM 64.9 °F 60.1 °F 84% 29.99 in 10.0 mi Calm Calm - N/A   Scattered Clouds
8:27 AM 66.0 °F 61.0 °F 84% 30.02 in 10.0 mi North 4.6 mph - N/A   Mostly Cloudy
8:53 AM 68.0 °F 61.0 °F 78% 30.02 in 10.0 mi NE 6.9 mph - N/A   Overcast
9:53 AM 66.9 °F 61.0 °F 81% 30.02 in 10.0 mi NE 6.9 mph - N/A   Overcast
10:24 AM 68.0 °F 62.1 °F 81% 30.02 in 10.0 mi ESE 5.8 mph - N/A   Overcast
10:53 AM 70.0 °F 62.1 °F 76% 30.00 in 10.0 mi SE 5.8 mph - N/A   Overcast
12:46 PM 69.1 °F 63.0 °F 81% 30.00 in 9.0 mi South 9.2 mph - N/A   Overcast
12:53 PM 69.1 °F 63.0 °F 81% 29.99 in 8.0 mi Variable 5.8 mph - N/A   Overcast
1:53 PM 69.1 °F 64.0 °F 84% 29.97 in 7.0 mi Variable 4.6 mph - N/A   Overcast
2:53 PM 68.0 °F 64.9 °F 90% 29.95 in 7.0 mi SE 5.8 mph - N/A   Overcast
3:45 PM 69.1 °F 64.9 °F 87% 29.97 in 3.0 mi Calm Calm - 0.00 in Rain Light Rain
3:53 PM 68.0 °F 64.9 °F 90% 29.95 in 4.0 mi South 3.5 mph - 0.00 in Rain Light Rain
5:04 PM 66.9 °F 66.0 °F 97% 29.98 in 2.0 mi WNW 3.5 mph - 0.00 in Rain Light Rain
5:53 PM 66.9 °F 64.9 °F 93% 29.91 in 1.2 mi NNE 9.2 mph - 0.04 in Rain Light Rain
6:16 PM 66.9 °F 64.9 °F 93% 29.90 in 2.5 mi ENE 4.6 mph - 0.01 in Rain Light Rain
6:24 PM 66.9 °F 64.9 °F 93% 29.91 in 4.0 mi ESE 4.6 mph - 0.01 in   Overcast
7:11 PM 66.9 °F 64.9 °F 93% 29.91 in 1.8 mi South 3.5 mph - 0.00 in   Mostly Cloudy
7:23 PM 66.9 °F 64.9 °F 93% 29.92 in 2.0 mi SW 4.6 mph - 0.00 in   Mostly Cloudy
7:42 PM 66.9 °F 64.9 °F 93% 29.93 in 1.8 mi WSW 4.6 mph - 0.00 in Rain Light Rain
7:53 PM 66.0 °F 64.9 °F 96% 29.91 in 1.5 mi NW 3.5 mph - 0.01 in Rain Light Rain
8:13 PM 66.0 °F 64.9 °F 96% 29.93 in 1.5 mi WSW 5.8 mph - 0.00 in   Overcast
8:53 PM 64.9 °F 64.0 °F 97% 29.91 in 3.0 mi South 5.8 mph - 0.00 in Rain Light Rain
9:43 PM 64.9 °F 64.0 °F 97% 29.91 in 2.5 mi East 3.5 mph - 0.00 in   Overcast
9:53 PM 64.9 °F 64.0 °F 97% 29.90 in 2.5 mi ENE 3.5 mph - 0.00 in   Overcast
10:21 PM 64.9 °F 64.0 °F 97% 29.91 in 1.5 mi Calm Calm - N/A   Mostly Cloudy
10:32 PM 64.0 °F 63.0 °F 96% 29.92 in 0.2 mi Calm Calm - N/A Fog Fog
10:53 PM 64.0 °F 63.0 °F 96% 29.91 in 0.2 mi Calm Calm - N/A Fog Fog
11:08 PM 62.1 °F 61.0 °F 96% 29.93 in 0.5 mi Calm Calm - N/A Fog Fog
11:13 PM 62.1 °F 61.0 °F 96% 29.93 in 0.2 mi Calm Calm - N/A Fog Fog
11:53 PM 63.0 °F 62.1 °F 97% 29.92 in 0.2 mi Calm Calm - N/A Fog Fog